STARLINK-2000 (47595 NORAD) Tracking and Keplerian Element Data
This shows tracking and keplerian element data for the satellite.
Feedback or suggestion? Click here.
Element | Value |
Catalog | 47595 |
Name | STARLINK-2000 |
Epoch Orbit | 175 |
Epoch Day | 101.91668981 |
Epoch Year | 2021 |
RAAN | 169.6765 |
Inclination | 53.0534 |
Eccentricity | 0.0001039 |
Argument of Perigee | 68.4133 |
Mean Anonmoly | 174.683 |
Mean Motion | 15.06391338 |
Decay Rate | -0.00018295 |
L1 | 1 47595U 21009AZ 21101.91668981 -.00018295 00000-0 -12128-2 0 9998 |
L2 | 2 47595 53.0534 169.6765 0001039 68.4133 174.6830 15.06391338 1751 |
Live tracking and technical data element details for STARLINK-2000 (NORAD 47595). STARLINK-2000 can be tracked NOW for your location showing map with azimuth and elevation plus other details from your city location.
Track the satellite on the map from your city or location and see movement details for azimuth, elevation, latitude, longitude, range, height, and movement on the map or in text.
IsCatalogInMostPopularTable: catalog: 47595, numindb: 13
Update: records affected: 1
GetName: 47595 STARLINK-2000
Hit Count: updated at: Tue, 13 Apr 2021 03:50:18 GMT